#timestamp,LO_Frequency,Hit,StdDev 
1637913615.6,286047002.7,N
1637913635.5,286047002.1,N
1637913655.3,286047000.1,N
1637913675.1,286046999.8,N
1637913695.9,286046999.8,N
1637913715.7,286047000.0,N
1637913735.5,286047000.2,N
1637913755.4,286047000.5,N
1637913775.2,286046999.8,N
1637913795.1,286047000.2,N
1637913796.0,286047000.2,N
1637913815.8,286046999.7,N
1637913835.6,286047000.5,N
1637913855.5,286047000.2,N
1637913875.3,286047002.5,N
1637913895.1,286047002.3,N
1637913915.9,286047000.0,N
1637913935.7,286047000.8,N
1637913955.6,286047000.4,N
1637913975.4,286047002.6,N
1637913995.2,286046999.7,N
1637914015.1,286047002.1,N
1637914016.0,286047002.1,N
1637914035.8,286047001.6,N
1637914055.6,286047001.8,N
1637914075.5,286047003.6,Y
1637914095.3,286047001.3,P
1637914115.2,286047004.4,P
1637914135.9,286047004.4,N
1637914155.7,286047001.9,N
1637914175.6,286047003.9,N
1637914195.4,286047002.7,N
1637914215.2,286047002.0,N
1637914235.1,286047004.3,Y
1637914236.0,286047004.3,P
1637914255.8,286047001.0,N
1637914275.7,286047000.7,N
1637914295.5,286047001.2,N
1637914315.3,286046999.5,N
1637914335.2,286047000.8,N
1637914355.0,286047000.6,N
1637914355.9,286047000.6,N
1637914375.8,286047001.2,N
1637914395.6,286047001.1,N
1637914415.4,286047000.6,N
1637914435.3,286047000.8,N
1637914455.1,286046999.1,N
1637914475.8,286046998.8,N
1637914495.7,286046999.5,N
1637914515.5,286046998.4,N
1637914535.4,286046996.5,N
1637914555.2,286046998.2,N
1637914575.0,286046999.4,N
1637914575.9,286046999.4,N
1637914595.8,286047000.6,N
1637914615.6,286047000.8,N
1637914635.4,286047000.3,N
1637914655.3,286047001.0,N
1637914675.1,286046998.5,N
1637914695.9,286047000.6,N
1637914715.7,286047000.7,N
1637914735.5,286047000.6,N
1637914755.4,286047000.4,N
1637914775.2,286047000.6,N
1637914795.0,286047002.8,N
1637914796.0,286047002.8,N
1637914815.8,286047002.0,N
1637914835.6,286047002.2,N
1637914855.5,286047002.1,N
1637914875.3,286047001.7,N
1637914895.1,286047001.3,N
1637914915.9,286047003.7,N
1637914935.7,286047003.9,N
1637914955.6,286047004.0,N
1637914975.4,286047003.4,N
1637914995.2,286047004.1,N
1637915015.1,286047002.3,N
1637915016.0,286047002.3,N
1637915035.8,286047002.2,N
1637915055.7,286047001.6,N
1637915075.5,286047001.5,N
1637915095.3,286047003.9,N
1637915115.2,286047001.8,N
1637915135.0,286047002.6,N
1637915135.9,286047002.6,N
1637915155.8,286047002.2,N
1637915175.6,286046999.8,N
1637915195.4,286047000.2,N
1637915215.3,286047000.2,N
1637915235.1,286046999.7,N
1637915255.8,286047002.2,N
1637915275.7,286047002.4,N
1637915295.5,286047000.4,N
1637915315.4,286047000.4,N
1637915335.2,286047000.0,N
1637915355.0,286046998.6,N
1637915355.9,286046998.6,N
1637915375.8,286047000.9,N
1637915395.6,286047000.3,N
1637915415.4,286047000.0,N
1637915435.3,286047002.3,N
1637915455.1,286047000.1,N
1637915475.9,286047002.0,N
1637915495.7,286047002.5,N
1637915515.5,286047000.2,N
1637915535.4,286046998.1,N
1637915555.2,286047001.1,N
1637915575.0,286046998.2,N
1637915575.9,286046998.2,N
1637915595.8,286046998.7,N
1637915615.6,286046998.4,N
1637915635.5,286046998.2,N
1637915655.3,286047000.5,N
1637915675.1,286047000.3,N
1637915695.9,286047000.3,N
1637915715.7,286047002.3,N
1637915735.5,286046999.7,N
1637915755.4,286047002.5,N
1637915775.2,286047002.6,N
1637915795.1,286047002.1,N
1637915796.0,286047002.1,N
1637915815.8,286047002.1,N
1637915835.6,286047001.7,N
1637915855.5,286047002.5,N
1637915875.3,286047002.5,N
1637915895.1,286047001.5,N
1637915915.9,286047002.4,N
1637915935.7,286047002.8,N
1637915955.6,286046999.7,N
1637915975.4,286047002.4,N
1637915995.2,286047002.3,N
1637916015.1,286047002.3,N
1637916016.0,286047002.3,N
1637916035.8,286046999.7,N
1637916055.7,286046999.9,N
1637916075.5,286047002.8,N
1637916095.3,286047000.9,N
1637916115.2,286046998.2,N
1637916135.9,286046998.5,N
1637916155.7,286046998.7,N
1637916175.6,286046999.3,N
1637916195.4,286046998.7,N
1637916215.3,286047000.0,N
1637916235.1,286047000.7,N
1637916236.0,286047000.7,N
1637916255.8,286047000.7,N
1637916275.7,286047001.1,N
1637916295.5,286046998.5,N
1637916315.3,286046999.1,N
1637916335.2,286046998.6,N
1637916355.0,286046999.1,N
1637916355.9,286046999.1,N
1637916375.8,286046997.7,N
1637916395.6,286046999.6,N
1637916415.4,286046999.4,N
1637916435.3,286046996.8,N
1637916455.1,286046996.6,N
1637916475.8,286046997.7,N
1637916495.7,286046995.1,Y
1637916515.5,286046996.1,P
1637916535.4,286046996.4,N
1637916555.2,286046996.4,N
1637916575.0,286046995.6,N
1637916575.9,286046995.6,Y
1637916595.8,286047001.2,P
1637916615.6,286046999.5,N
1637916635.5,286046999.6,N
1637916655.3,286046996.8,N
1637916675.1,286046997.1,N
1637916695.9,286046997.5,N
1637916715.7,286046995.7,N
1637916735.5,286046995.1,N
1637916755.4,286046996.2,N
1637916775.2,286046993.7,Y
1637916795.1,286046995.6,P
1637916796.0,286046995.6,P
1637916815.8,286046995.0,P
1637916835.6,286046997.9,N
1637916855.5,286046996.6,N
1637916875.3,286046997.9,N
1637916895.1,286046997.4,N
1637916915.9,286046996.8,N
1637916935.7,286046995.3,Y
1637916955.6,286046998.2,P
1637916975.4,286046998.6,N
1637916995.2,286046998.2,N
1637917015.1,286046998.3,N
1637917016.0,286046998.3,N
1637917035.8,286046999.6,N
1637917055.6,286046998.9,N
1637917075.5,286046998.7,N
1637917095.3,286046998.9,N
1637917115.2,286046997.1,Y
1637917135.9,286047000.0,P
1637917155.7,286047000.3,N
1637917175.6,286046999.4,N
1637917195.4,286046998.9,N
